THORAD DELTA 1 DEB, 8160

Orbit data source: Space-Track

THORAD DELTA 1 DEB, 8160 is space debris in SSO originally from a launch on Fri, 15 Nov 1974 UTC launched from the Air Force Western Test Range (AFWTR). Debris objects in space refer to the collection of defunct objects orbiting the Earth. Examples of debris include non-operational satellites, rocket bodies, and fragments generated from explosions, collisions, or faulty payload assembly.

Loading next visibility...
Identifier
8160, 1974-089AA
Orbit
SSO
Last TLE update
2 days ago
Origin
Manufacturer
Unknown
Mission
Spacecraft
Bus & Motor
Unknown
Mass
Unknown
Launch date (UTC)
1974-11-15 (50 years ago)
Launch vehicle
Unknown
Launch site
Air Force Western Test Range (AFWTR)
Object type
Payload
Rocket body
Debris
Shape & HBR
Unknown
Radar Cross Section
Small (<0.1 m²)

Expand to show TLE details & history

TLE from 2 days ago
0 THORAD DELTA 1 DEB
1 08160U 74089AA  25127.34818823  .00000034  00000-0  42242-3 0  9991
2 08160 101.7696 254.8096 0146711 159.4232 273.7139 12.63503730326606
Epoch: 2025-05-07T08:21Z
Definitive object data (Epoch: 2025-05-07T08:21:23.463Z)
Latitude
68.22862°
Longitude
-127.24499°
Altitude
1,414.428 km
Speed
7.162 km/s
True Right ascension
14h 54m 08s
True Declination
68° 07' 12"
Sunlit
Object was in daylight at TLE epoch
Visualization TLE readout
Latitude
9.5839°
Longitude
87.9745°
Altitude
1,299.659 km
Speed
7.258 km/s
Apparent Right ascension
04h 13m 42s
Apparent Declination
-13° 22' 34"
Sunlit
Object is in daylight
Visualization observer readout
Local Sidereal Time
14:37:15
Azimuth
314.628° NW
Elevation
-56.048°
Doppler factor
1
Orbital elements
Apogee altitude
1,520.248 km
Perigee altitude
1,291.843 km
Semi-major axis
7,784.183 km
Eccentricity
0.0146711
Inclination
101.7696°
RAAN
254.8096°
Arg. of periapsis
159.4232°
True anomaly
272.03449°
Mean anomaly
273.7139°
Eccentric anomaly
272.87437°
Mean motion
3.16027 °/min
BSTAR
0.00042242
Orbital period
113.91 mins
Loading maneuver chart data...
Loading SW <> Apogee altitude chart data...
Loading historical data...
Loading historical data...
Loading historical data...
Loading historical data...
Loading historical data...
Loading historical data...
Loading historical data...

THORAD DELTA 1 DEB Visibility forecast

Observer location: undefined°, undefined°

Span
Click to sort rows by Start time (UTC) header in descending order
Start Az.
Max El. time (UTC)
Max El. Az.
Max El.
End time (UTC)
End Az.
15 mins2025-05-09 07:35:25.122Z140.352° SSE2025-05-09 07:42:25.122Z79.777° E40.058°2025-05-09 07:50:25.122Z351.07° N
12 mins2025-05-09 09:29:25.122Z210.488° SW2025-05-09 09:35:25.122Z267.244° W27.513°2025-05-09 09:41:25.122Z319.401° NNW
4 mins2025-05-09 19:36:25.122Z75.647° E2025-05-09 19:38:25.122Z92.424° ESE12.753°2025-05-09 19:40:25.122Z108.9° ESE
13 mins2025-05-09 21:25:25.122Z20.399° NNE2025-05-09 21:31:25.122Z144.636° SSE44.579°2025-05-09 21:38:25.122Z195.493° SSW
8 mins2025-05-09 23:18:25.122Z341.349° N2025-05-09 23:22:25.122Z303.787° NW19.796°2025-05-09 23:26:25.122Z267.904° W
|